User: anonymous   Login
Location: Calvatone
(45.1167°N, 10.4333°E)
Time: 15:48:21
(UTC+00:00)
Language:

BlueWalker 3 - Orbit

View from above orbital plane
View from above orbital plane
View from above satellite
View from above satellite

Ground track
Ground track

The orbit data is extracted from the following two-line orbital elements,

1 53807U 22111AL  23160.26720553  .00005463  00000-0  25851-3 0  9994
2 53807  53.2014 109.5045 0014144  28.6792 331.4980 15.20830624 41242
Epoch (UTC): 09 June 2023 06:24:46
Eccentricity: 0.0014144
inclination: 53.2014°
perigee height: 493 km
apogee height: 513 km
right ascension of ascending node: 109.5045°
argument of perigee: 28.6792°
revolutions per day: 15.20830624
mean anomaly at epoch: 331.4980°
orbit number at epoch: 4124

The dashed part of the orbit path shows where the satellite is in the earth's shadow,  

DLR